TimeEDT,TemperatureF,Dew PointF,Humidity,Sea Level PressureIn,VisibilityMPH,Wind Direction,Wind SpeedMPH,Gust SpeedMPH,PrecipitationIn,Events,Conditions,WindDirDegrees,DateUTC
12:54 AM,57.9,57.0,97,30.07,10.0,NE,8.1,-,0.00,Rain,Light Rain,40,2013-07-26 04:54:00
1:54 AM,57.9,57.0,97,30.07,10.0,NNE,9.2,-,0.02,Rain,Light Rain,30,2013-07-26 05:54:00
2:16 AM,57.9,57.0,97,30.06,10.0,NNE,10.4,-,0.01,Rain,Light Rain,20,2013-07-26 06:16:00
2:54 AM,57.9,57.0,97,30.05,7.0,NNE,10.4,-,0.04,Rain,Rain,20,2013-07-26 06:54:00
3:54 AM,57.9,57.0,97,30.03,8.0,NNE,12.7,18.4,0.13,Rain,Rain,20,2013-07-26 07:54:00
4:08 AM,57.9,57.0,97,30.02,9.0,NNE,10.4,-,0.01,Rain,Light Rain,20,2013-07-26 08:08:00
4:44 AM,57.9,57.9,100,30.02,8.0,NNE,11.5,-,0.04,Rain,Rain,20,2013-07-26 08:44:00
4:54 AM,57.9,57.9,100,30.03,8.0,NNE,10.4,18.4,0.06,Rain,Rain,30,2013-07-26 08:54:00
5:06 AM,57.9,57.9,100,30.02,9.0,NNE,9.2,18.4,0.01,Rain,Light Rain,30,2013-07-26 09:06:00
5:54 AM,57.9,57.9,100,30.02,8.0,NNE,11.5,-,0.05,Rain,Rain,30,2013-07-26 09:54:00
6:33 AM,59.0,57.9,96,30.02,4.0,NNE,11.5,20.7,0.04,Rain,Rain,20,2013-07-26 10:33:00
6:54 AM,59.0,57.9,96,30.02,6.0,NNE,12.7,19.6,0.09,Rain,Rain,20,2013-07-26 10:54:00
7:06 AM,59.0,57.9,96,30.02,7.0,North,12.7,21.9,0.02,Rain,Rain,10,2013-07-26 11:06:00
7:54 AM,59.0,57.9,96,30.02,6.0,North,13.8,21.9,0.07,Rain,Light Rain,10,2013-07-26 11:54:00
8:54 AM,60.1,59.0,96,30.01,10.0,North,13.8,21.9,0.01,Rain,Light Rain,10,2013-07-26 12:54:00
9:54 AM,62.1,59.0,90,30.01,10.0,North,11.5,-,0.00,,Overcast,10,2013-07-26 13:54:00
10:01 AM,62.1,59.0,90,30.01,10.0,North,13.8,21.9,0.00,Rain,Light Rain,10,2013-07-26 14:01:00
10:54 AM,62.1,60.1,93,30.01,7.0,North,11.5,-,0.02,Rain,Light Rain,10,2013-07-26 14:54:00
11:54 AM,64.0,60.1,87,30.00,10.0,North,12.7,20.7,0.00,,Overcast,360,2013-07-26 15:54:00
12:26 PM,66.0,61.0,84,30.00,10.0,North,10.4,21.9,N/A,,Overcast,360,2013-07-26 16:26:00
12:54 PM,68.0,61.0,78,29.99,10.0,North,15.0,21.9,N/A,,Mostly Cloudy,360,2013-07-26 16:54:00
1:06 PM,69.1,62.1,78,29.99,10.0,NNE,11.5,18.4,N/A,,Mostly Cloudy,20,2013-07-26 17:06:00
1:54 PM,69.1,61.0,75,29.99,10.0,NE,9.2,-,N/A,,Overcast,40,2013-07-26 17:54:00
2:21 PM,69.1,61.0,75,29.99,10.0,WNW,11.5,-,N/A,,Overcast,290,2013-07-26 18:21:00
2:54 PM,69.1,62.1,78,29.99,10.0,NW,13.8,-,N/A,,Overcast,310,2013-07-26 18:54:00
3:01 PM,70.0,62.1,76,30.00,10.0,NW,13.8,-,N/A,,Overcast,310,2013-07-26 19:01:00
3:54 PM,68.0,61.0,78,29.99,10.0,WNW,12.7,-,N/A,,Overcast,300,2013-07-26 19:54:00
4:54 PM,66.9,57.9,73,30.00,10.0,NW,15.0,23.0,N/A,,Overcast,320,2013-07-26 20:54:00
5:54 PM,66.0,57.9,75,30.00,10.0,WNW,10.4,-,N/A,,Overcast,290,2013-07-26 21:54:00
6:54 PM,66.9,57.9,73,30.00,10.0,WNW,15.0,-,N/A,,Mostly Cloudy,290,2013-07-26 22:54:00
7:54 PM,66.0,57.9,75,30.01,10.0,WNW,13.8,-,N/A,,Mostly Cloudy,300,2013-07-26 23:54:00
8:54 PM,64.9,57.9,78,30.01,10.0,WNW,13.8,-,0.00,,Scattered Clouds,300,2013-07-27 00:54:00
9:54 PM,64.0,57.0,78,30.03,10.0,West,8.1,-,N/A,,Clear,280,2013-07-27 01:54:00
10:54 PM,62.1,57.9,86,30.04,10.0,West,10.4,-,N/A,,Clear,260,2013-07-27 02:54:00
11:54 PM,61.0,57.9,90,30.04,10.0,West,9.2,-,N/A,,Clear,260,2013-07-27 03:54:00